EW3883 Weather Reports


time (UTC)temp
C
wind
direction
speed
KPH
gust
KPH
rain 1hr
cm
rain 24hr
cm
rain mn
cm
humidity
%
barometer
mb
20260509024039 14 295 1.6 8.0 0.00 0.00 0.00 86 1011.6
20260509023541 14 262 1.6 8.0 0.00 0.00 0.00 85 1011.7
20260509023045 15 288 1.6 8.0 0.00 0.00 0.00 83 1011.7
20260509022541 15 321 3.2 8.0 0.00 0.00 0.00 80 1011.6
20260509022037 15 42 0.0 4.8 0.00 0.00 0.00 76 1011.5
20260509021553 16 264 0.0 1.6 0.00 0.00 0.00 73 1011.4
20260509021039 16 0 0.0 1.6 0.00 0.00 0.00 71 1011.1
20260509020539 16 0 0.0 1.6 0.00 0.00 0.00 70 1011.0
20260509020052 16 0 0.0 0.0 0.00 0.00 0.00 70 1010.9
20260509015536 16 0 0.0 0.0 0.00 0.00 0.00 69 1011.0
20260509015041 16 0 0.0 0.0 0.00 0.00 0.00 69 1010.9
20260509014545 16 0 0.0 0.0 0.00 0.00 0.00 68 1010.9
20260509014039 16 0 0.0 0.0 0.00 0.00 0.00 67 1010.8
20260509013540 16 0 0.0 0.0 0.00 0.00 0.00 67 1010.8
20260509013055 16 0 0.0 0.0 0.00 0.00 0.00 65 1010.7
20260509012539 16 0 0.0 1.6 0.00 0.00 0.00 64 1010.7
20260509012039 17 0 0.0 3.2 0.00 0.00 0.00 64 1010.7
20260509011548 17 0 0.0 3.2 0.00 0.00 0.00 63 1010.8
20260509011038 17 0 0.0 6.4 0.00 0.00 0.00 63 1010.8
20260509010540 17 195 0.0 6.4 0.00 0.00 0.00 63 1010.8
20260509010044 17 83 0.0 6.4 0.00 0.00 0.00 61 1010.9
20260509005540 17 0 0.0 0.0 0.00 0.00 0.00 63 1011.0
20260509005040 17 0 0.0 0.0 0.00 0.00 0.00 62 1010.8
20260509004543 17 0 0.0 0.0 0.00 0.00 0.00 61 1010.7
20260509004039 17 0 0.0 0.0 0.00 0.00 0.00 60 1010.6
20260509003540 17 0 0.0 0.0 0.00 0.00 0.00 59 1010.6
20260509003052 17 0 0.0 0.0 0.00 0.00 0.00 59 1010.6
20260509002539 18 0 0.0 0.0 0.00 0.00 0.00 58 1010.5
20260509002039 18 0 0.0 0.0 0.00 0.00 0.00 58 1010.4
20260509001550 18 0 0.0 0.0 0.00 0.00 0.00 59 1010.6
20260509001038 18 0 0.0 1.6 0.00 0.00 0.00 58 1010.5
20260509000543 18 0 0.0 1.6 0.00 0.00 0.00 57 1010.6
20260509000048 18 0 0.0 0.0 0.00 0.00 0.00 57 1010.6
20260508235540 18 0 0.0 1.6 0.00 0.00 0.00 57 1010.8
20260508235041 18 0 0.0 1.6 0.00 0.00 0.00 57 1010.6
20260508234545 18 23 0.0 0.0 0.00 0.00 0.00 57 1010.6
20260508234043 18 0 0.0 0.0 0.00 0.00 0.00 57 1010.6
20260508233539 18 0 0.0 0.0 0.00 0.00 0.00 57 1010.5
20260508233114 18 0 0.0 0.0 0.00 0.00 0.00 55 1010.5
20260508232537 18 0 0.0 1.6 0.00 0.00 0.00 56 1010.4
20260508232038 18 0 0.0 1.6 0.00 0.00 0.00 55 1010.5
20260508231552 18 359 0.0 0.0 0.00 0.00 0.00 52 1010.6
20260508231040 18 0 0.0 3.2 0.00 0.00 0.00 54 1010.7
20260508230542 18 0 0.0 3.2 0.00 0.00 0.00 53 1010.6
20260508230056 19 0 0.0 3.2 0.00 0.00 0.00 52 1010.6
20260508225539 19 337 0.0 1.6 0.00 0.00 0.00 53 1010.5
20260508225040 19 77 0.0 1.6 0.00 0.00 0.00 53 1010.5
20260508224605 19 0 0.0 1.6 0.00 0.00 0.00 52 1010.5
20260508224040 19 0 0.0 1.6 0.00 0.00 0.00 51 1010.4
20260508223539 19 0 0.0 1.6 0.00 0.00 0.00 52 1010.4
20260508223047 20 0 0.0 1.6 0.00 0.00 0.00 51 1010.4
20260508222539 20 0 0.0 1.6 0.00 0.00 0.00 52 1010.4
20260508222039 20 0 0.0 1.6 0.00 0.00 0.00 51 1010.4
20260508221549 20 0 0.0 1.6 0.00 0.00 0.00 50 1010.5
20260508221039 20 0 0.0 1.6 0.00 0.00 0.00 49 1010.3
20260508220538 20 0 0.0 1.6 0.00 0.00 0.00 52 1010.4
20260508220057 20 0 0.0 3.2 0.00 0.00 0.00 52 1010.4
20260508215539 20 131 0.0 3.2 0.00 0.00 0.00 50 1010.3
20260508215040 20 122 0.0 3.2 0.00 0.00 0.00 51 1010.2
20260508214551 20 0 0.0 1.6 0.00 0.00 0.00 49 1010.3
20260508214042 20 0 0.0 1.6 0.00 0.00 0.00 50 1010.3
20260508213543 20 349 0.0 1.6 0.00 0.00 0.00 49 1010.3
20260508213047 20 0 0.0 1.6 0.00 0.00 0.00 48 1010.5
20260508212542 20 0 0.0 3.2 0.00 0.00 0.00 48 1010.5
20260508212039 20 0 0.0 3.2 0.00 0.00 0.00 48 1010.4
20260508211548 20 0 0.0 3.2 0.00 0.00 0.00 48 1010.5
20260508211039 20 0 0.0 4.8 0.00 0.00 0.00 45 1010.6
20260508210539 20 328 0.0 4.8 0.00 0.00 0.00 47 1010.6
20260508210050 20 0 0.0 1.6 0.00 0.00 0.00 50 1010.6
20260508205538 20 0 0.0 4.8 0.00 0.00 0.00 49 1010.8
20260508205041 20 0 0.0 4.8 0.00 0.00 0.00 49 1010.9
20260508204553 20 0 0.0 6.4 0.00 0.00 0.00 49 1011.0
20260508204038 20 356 0.0 6.4 0.00 0.00 0.00 48 1011.2
20260508203538 20 0 0.0 3.2 0.00 0.00 0.00 48 1011.3
20260508203056 20 0 0.0 8.0 0.00 0.00 0.00 49 1011.3
20260508202539 20 95 1.6 8.0 0.00 0.00 0.00 47 1011.4
20260508202038 21 0 0.0 3.2 0.00 0.00 0.00 46 1011.5
20260508201552 21 0 0.0 3.2 0.00 0.00 0.00 48 1011.6
20260508201039 21 0 0.0 3.2 0.00 0.00 0.00 49 1011.5
20260508200540 21 86 0.0 1.6 0.00 0.00 0.00 50 1011.6
20260508200105 20 0 0.0 4.8 0.00 0.00 0.00 49 1011.6
20260508195540 20 120 0.0 4.8 0.00 0.00 0.00 48 1011.6
20260508195041 20 0 0.0 3.2 0.00 0.00 0.00 47 1011.8
20260508194553 20 0 0.0 3.2 0.00 0.00 0.00 45 1011.8
20260508194040 20 114 0.0 6.4 0.00 0.00 0.00 46 1011.8
20260508193539 20 58 0.0 8.0 0.00 0.00 0.00 45 1011.9
20260508193101 21 0 0.0 8.0 0.00 0.00 0.00 46 1011.9
20260508192540 21 103 0.0 4.8 0.00 0.00 0.00 45 1011.9
20260508192040 21 0 0.0 4.8 0.00 0.00 0.00 45 1011.8
20260508191552 22 129 0.0 3.2 0.00 0.00 0.00 44 1011.9
20260508191039 22 120 0.0 8.0 0.00 0.00 0.00 45 1011.9
20260508190542 22 0 0.0 8.0 0.00 0.00 0.00 44 1012.1
20260508190043 23 131 1.6 8.0 0.00 0.00 0.00 42 1012.1
20260508185542 23 0 0.0 6.4 0.00 0.00 0.00 41 1012.1
20260508185042 23 0 0.0 4.8 0.00 0.00 0.00 47 1012.2
20260508184549 23 122 0.0 3.2 0.00 0.00 0.00 50 1012.2
20260508184039 23 0 0.0 6.4 0.00 0.00 0.00 47 1012.3
20260508183538 22 0 0.0 6.4 0.00 0.00 0.00 46 1012.3
20260508183052 22 0 0.0 6.4 0.00 0.00 0.00 48 1012.3
20260508182543 22 0 0.0 3.2 0.00 0.00 0.00 50 1012.7
20260508182039 21 141 0.0 3.2 0.00 0.00 0.00 46 1012.8
20260508181551 22 0 0.0 3.2 0.00 0.00 0.00 44 1012.8
20260508181040 22 0 0.0 3.2 0.00 0.00 0.00 44 1013.0
20260508180542 22 0 0.0 1.6 0.00 0.00 0.00 48 1013.0
20260508180046 22 0 0.0 3.2 0.00 0.00 0.00 48 1013.0
20260508175540 22 188 0.0 4.8 0.00 0.00 0.00 46 1013.1
20260508175039 22 0 0.0 4.8 0.00 0.00 0.00 48 1013.1
20260508174605 22 60 0.0 4.8 0.00 0.00 0.00 51 1013.1
20260508174038 22 132 0.0 4.8 0.00 0.00 0.00 49 1013.3
20260508173539 22 105 0.0 3.2 0.00 0.00 0.00 47 1013.4
20260508173046 22 330 0.0 3.2 0.00 0.00 0.00 46 1013.6
20260508172538 22 0 0.0 4.8 0.00 0.00 0.00 50 1013.6
20260508172038 22 0 0.0 6.4 0.00 0.00 0.00 49 1013.6
20260508171551 21 119 0.0 6.4 0.00 0.00 0.00 48 1013.8
20260508171040 22 85 0.0 6.4 0.00 0.00 0.00 48 1013.9
20260508170539 22 101 0.0 3.2 0.00 0.00 0.00 49 1014.2
20260508170052 22 140 0.0 3.2 0.00 0.00 0.00 46 1014.1
20260508165540 22 115 0.0 3.2 0.00 0.00 0.00 50 1014.3
20260508165035 22 0 0.0 3.2 0.00 0.00 0.00 52 1014.4
20260508164553 22 117 0.0 4.8 0.00 0.00 0.00 51 1014.4
20260508164035 22 77 1.6 4.8 0.00 0.00 0.00 49 1014.7
20260508163534 22 0 0.0 4.8 0.00 0.00 0.00 51 1014.6
20260508163051 22 108 1.6 4.8 0.00 0.00 0.00 51 1014.8
20260508162537 22 72 0.0 4.8 0.00 0.00 0.00 56 1014.8
20260508162036 21 119 0.0 4.8 0.00 0.00 0.00 51 1014.9
20260508161551 21 54 0.0 4.8 0.00 0.00 0.00 54 1015.0
20260508161036 21 0 0.0 4.8 0.00 0.00 0.00 51 1015.0
20260508160535 21 342 0.0 3.2 0.00 0.00 0.00 49 1015.1
20260508160055 21 130 0.0 3.2 0.00 0.00 0.00 52 1015.0
20260508155537 21 38 0.0 3.2 0.00 0.00 0.00 55 1015.1
20260508155035 21 131 0.0 3.2 0.00 0.00 0.00 54 1015.1
20260508154551 21 0 0.0 3.2 0.00 0.00 0.00 52 1015.2
20260508154035 21 0 0.0 4.8 0.00 0.00 0.00 53 1015.1
20260508153535 20 0 0.0 4.8 0.00 0.00 0.00 52 1015.3
20260508153055 20 0 0.0 4.8 0.00 0.00 0.00 52 1015.4
20260508152535 20 323 0.0 3.2 0.00 0.00 0.00 53 1015.6
20260508152038 20 0 0.0 3.2 0.00 0.00 0.00 56 1015.6
20260508151545 20 0 0.0 3.2 0.00 0.00 0.00 57 1015.7
20260508151035 20 96 0.0 3.2 0.00 0.00 0.00 56 1015.7
20260508150537 20 0 0.0 3.2 0.00 0.00 0.00 54 1015.7
20260508150053 19 118 0.0 1.6 0.00 0.00 0.00 55 1015.7
20260508145536 19 336 0.0 1.6 0.00 0.00 0.00 56 1015.7
20260508145038 19 134 0.0 3.2 0.00 0.00 0.00 58 1015.9
20260508144552 18 0 0.0 3.2 0.00 0.00 0.00 57 1015.9
20260508144036 18 78 0.0 3.2 0.00 0.00 0.00 54 1016.0
20260508143539 18 122 0.0 4.8 0.00 0.00 0.00 58 1015.8
20260508143057 18 0 0.0 4.8 0.00 0.00 0.00 57 1015.8
20260508142538 17 25 0.0 4.8 0.00 0.00 0.00 57 1016.0
20260508142036 17 0 0.0 4.8 0.00 0.00 0.00 60 1015.9
20260508141550 17 0 0.0 3.2 0.00 0.00 0.00 60 1016.0
20260508141035 16 0 0.0 1.6 0.00 0.00 0.00 60 1016.0
20260508140536 16 0 0.0 1.6 0.00 0.00 0.00 60 1016.0
20260508140059 16 0 0.0 4.8 0.00 0.00 0.00 61 1016.0
20260508135538 16 0 0.0 4.8 0.00 0.00 0.00 62 1016.1
20260508135036 15 0 0.0 4.8 0.00 0.00 0.00 61 1016.1
20260508134550 15 99 0.0 4.8 0.00 0.00 0.00 64 1016.2
20260508134038 15 117 0.0 3.2 0.00 0.00 0.00 65 1016.0
20260508133541 15 0 0.0 1.6 0.00 0.00 0.00 64 1016.0
20260508133056 14 0 0.0 1.6 0.00 0.00 0.00 66 1016.2
20260508132538 14 0 0.0 1.6 0.00 0.00 0.00 65 1016.2
20260508132038 13 140 0.0 1.6 0.00 0.00 0.00 67 1016.1
20260508131555 13 0 0.0 1.6 0.00 0.00 0.00 66 1016.2
20260508131038 13 122 0.0 1.6 0.00 0.00 0.00 66 1016.1
20260508130539 13 0 0.0 1.6 0.00 0.00 0.00 69 1016.2
20260508130103 12 0 0.0 1.6 0.00 0.00 0.00 69 1016.1
20260508125539 12 0 0.0 1.6 0.00 0.00 0.00 70 1016.0
20260508125039 12 0 0.0 1.6 0.00 0.00 0.00 70 1016.1
20260508124552 11 0 0.0 1.6 0.00 0.00 0.00 73 1016.0
20260508124043 11 0 0.0 1.6 0.00 0.00 0.00 72 1016.0
20260508123540 11 0 0.0 1.6 0.00 0.00 0.00 72 1016.1
20260508123057 11 0 0.0 1.6 0.00 0.00 0.00 73 1016.0
20260508122539 10 0 0.0 1.6 0.00 0.00 0.00 74 1016.0
20260508122039 10 129 0.0 1.6 0.00 0.00 0.00 74 1015.9
20260508121557 10 120 0.0 1.6 0.00 0.00 0.00 73 1015.9
20260508121041 10 0 0.0 1.6 0.00 0.00 0.00 75 1015.9
20260508120538 9 0 0.0 1.6 0.00 0.00 0.00 76 1016.0
20260508120054 9 0 0.0 0.0 0.00 0.00 0.00 78 1016.0
20260508115540 8 0 0.0 0.0 0.00 0.00 0.00 78 1016.0
20260508115038 8 0 0.0 0.0 0.00 0.00 0.00 78 1015.8
20260508114552 8 0 0.0 0.0 0.00 0.00 0.00 79 1015.9
20260508114039 8 0 0.0 0.0 0.00 0.00 0.00 78 1015.8
20260508113540 8 0 0.0 1.6 0.00 0.00 0.00 79 1015.7
20260508113047 7 0 0.0 1.6 0.00 0.00 0.00 79 1015.6
20260508112539 7 0 0.0 1.6 0.00 0.00 0.00 79 1015.5
20260508112038 7 0 0.0 1.6 0.00 0.00 0.00 79 1015.5
20260508111553 7 0 0.0 1.6 0.00 0.00 0.00 79 1015.5
20260508111042 7 0 0.0 0.0 0.00 0.00 0.00 78 1015.5
20260508110538 7 0 0.0 0.0 0.00 0.00 0.00 78 1015.6
20260508110055 7 0 0.0 0.0 0.00 0.00 0.00 77 1015.5
20260508105538 8 0 0.0 1.6 0.00 0.00 0.00 77 1015.4
20260508105041 8 0 0.0 1.6 0.00 0.00 0.00 77 1015.3
20260508104558 8 0 0.0 1.6 0.00 0.00 0.00 77 1015.3
20260508104040 8 0 0.0 0.0 0.00 0.00 0.00 77 1015.3
20260508103539 8 0 0.0 0.0 0.00 0.00 0.00 78 1015.4
20260508103050 8 0 0.0 0.0 0.00 0.00 0.00 78 1015.4
20260508102540 8 0 0.0 0.0 0.00 0.00 0.00 78 1015.4
20260508102040 7 0 0.0 0.0 0.00 0.00 0.00 78 1015.5
20260508101554 7 0 0.0 0.0 0.00 0.00 0.00 79 1015.4
20260508101040 7 0 0.0 0.0 0.00 0.00 0.00 80 1015.4
20260508100538 7 0 0.0 0.0 0.00 0.00 0.00 79 1015.5
20260508100051 7 0 0.0 0.0 0.00 0.00 0.00 81 1015.4
20260508095539 7 0 0.0 0.0 0.00 0.00 0.00 80 1015.5
20260508095041 7 0 0.0 0.0 0.00 0.00 0.00 80 1015.5
20260508094548 7 0 0.0 0.0 0.00 0.00 0.00 79 1015.4
20260508094038 7 0 0.0 0.0 0.00 0.00 0.00 79 1015.4
20260508093538 7 0 0.0 0.0 0.00 0.00 0.00 79 1015.5
20260508093055 7 0 0.0 0.0 0.00 0.00 0.00 79 1015.4
20260508092541 7 0 0.0 0.0 0.00 0.00 0.00 79 1015.4
20260508092038 7 0 0.0 0.0 0.00 0.00 0.00 79 1015.3
20260508091559 7 0 0.0 0.0 0.00 0.00 0.00 79 1015.5
20260508091037 6 0 0.0 0.0 0.00 0.00 0.00 78 1015.6
20260508090537 7 0 0.0 0.0 0.00 0.00 0.00 79 1015.5
20260508090108 7 0 0.0 0.0 0.00 0.00 0.00 78 1015.5
20260508085537 7 0 0.0 0.0 0.00 0.00 0.00 77 1015.5
20260508085036 7 0 0.0 0.0 0.00 0.00 0.00 77 1015.5
20260508084553 7 0 0.0 0.0 0.00 0.00 0.00 77 1015.5
20260508084041 7 0 0.0 0.0 0.00 0.00 0.00 76 1015.4
20260508083537 7 0 0.0 0.0 0.00 0.00 0.00 76 1015.3
20260508083045 7 0 0.0 0.0 0.00 0.00 0.00 75 1015.3
20260508082540 7 0 0.0 1.6 0.00 0.00 0.00 75 1015.3
20260508082040 7 0 0.0 1.6 0.00 0.00 0.00 75 1015.2
20260508081606 7 0 0.0 0.0 0.00 0.00 0.00 74 1015.3
20260508081039 7 0 0.0 0.0 0.00 0.00 0.00 74 1015.3
20260508080537 7 0 0.0 0.0 0.00 0.00 0.00 74 1015.3
20260508080051 7 0 0.0 0.0 0.00 0.00 0.00 73 1015.4
20260508075536 7 0 0.0 0.0 0.00 0.00 0.00 74 1015.3
20260508075037 7 0 0.0 0.0 0.00 0.00 0.00 74 1015.3
20260508074548 7 0 0.0 1.6 0.00 0.00 0.00 74 1015.3
20260508074037 7 0 0.0 1.6 0.00 0.00 0.00 74 1015.3
20260508073537 7 0 0.0 1.6 0.00 0.00 0.00 74 1015.3
20260508073048 7 0 0.0 1.6 0.00 0.00 0.00 75 1015.2
20260508072536 7 0 0.0 1.6 0.00 0.00 0.00 75 1015.2
20260508072037 7 0 0.0 0.0 0.00 0.00 0.00 76 1015.3
20260508071555 7 0 0.0 0.0 0.00 0.00 0.00 77 1015.4
20260508071039 7 0 0.0 0.0 0.00 0.00 0.00 77 1015.6
20260508070538 7 0 0.0 0.0 0.00 0.00 0.00 77 1015.5
20260508070058 7 0 0.0 0.0 0.00 0.00 0.00 76 1015.5
20260508065540 7 0 0.0 0.0 0.00 0.00 0.00 76 1015.4
20260508065037 7 0 0.0 0.0 0.00 0.00 0.00 75 1015.6
20260508064550 7 0 0.0 0.0 0.00 0.00 0.00 75 1015.6
20260508064038 7 0 0.0 0.0 0.00 0.00 0.00 75 1015.6
20260508063536 7 0 0.0 0.0 0.00 0.00 0.00 74 1015.7
20260508063043 7 0 0.0 0.0 0.00 0.00 0.00 74 1015.9
20260508062534 7 0 0.0 0.0 0.00 0.00 0.00 74 1016.0
20260508062036 7 0 0.0 0.0 0.00 0.00 0.00 74 1016.0
20260508061545 8 0 0.0 0.0 0.00 0.00 0.00 74 1016.1
20260508061037 8 0 0.0 0.0 0.00 0.00 0.00 74 1016.1
20260508060536 7 0 0.0 0.0 0.00 0.00 0.00 74 1016.2
20260508060052 7 0 0.0 0.0 0.00 0.00 0.00 74 1016.2
20260508055539 7 0 0.0 0.0 0.00 0.00 0.00 75 1016.1
20260508055036 7 0 0.0 0.0 0.00 0.00 0.00 75 1016.2
20260508054551 7 0 0.0 0.0 0.00 0.00 0.00 75 1016.0
20260508054037 7 0 0.0 0.0 0.00 0.00 0.00 75 1016.0
20260508053539 7 0 0.0 0.0 0.00 0.00 0.00 76 1016.0
20260508053052 7 0 0.0 0.0 0.00 0.00 0.00 75 1016.0
20260508052536 7 0 0.0 0.0 0.00 0.00 0.00 75 1016.0
20260508052035 8 0 0.0 0.0 0.00 0.00 0.00 75 1016.0
20260508051547 8 0 0.0 0.0 0.00 0.00 0.00 75 1016.0
20260508051036 8 0 0.0 0.0 0.00 0.00 0.00 75 1015.9
20260508050538 8 0 0.0 0.0 0.00 0.00 0.00 74 1016.0
20260508050043 8 0 0.0 0.0 0.00 0.00 0.00 73 1015.9
20260508045536 8 0 0.0 0.0 0.00 0.00 0.00 73 1015.9
20260508045038 8 0 0.0 0.0 0.00 0.00 0.00 72 1015.9
20260508044546 8 0 0.0 0.0 0.00 0.00 0.00 72 1015.9
20260508044040 8 0 0.0 0.0 0.00 0.00 0.00 72 1016.0
20260508043536 8 0 0.0 0.0 0.00 0.00 0.00 72 1016.0
20260508043044 8 0 0.0 0.0 0.00 0.00 0.00 72 1016.0
20260508042540 8 0 0.0 0.0 0.00 0.00 0.00 71 1016.1
20260508042041 8 0 0.0 0.0 0.00 0.00 0.00 71 1016.0
20260508041551 8 0 0.0 0.0 0.00 0.00 0.00 71 1016.0
20260508041040 8 0 0.0 0.0 0.00 0.00 0.00 71 1016.0
20260508040540 8 0 0.0 0.0 0.00 0.00 0.00 70 1015.9
20260508040059 8 0 0.0 0.0 0.00 0.00 0.00 70 1015.9
20260508035538 8 0 0.0 0.0 0.00 0.00 0.00 70 1015.8
20260508035041 8 0 0.0 1.6 0.00 0.00 0.00 70 1015.8
20260508034555 8 0 0.0 1.6 0.00 0.00 0.00 70 1015.8
20260508034039 8 0 0.0 1.6 0.00 0.00 0.00 69 1016.0
20260508033540 9 0 0.0 0.0 0.00 0.00 0.00 68 1015.9
20260508033109 9 0 0.0 0.0 0.00 0.00 0.00 68 1015.9
20260508032537 9 0 0.0 0.0 0.00 0.00 0.00 67 1015.9
20260508032036 9 0 0.0 0.0 0.00 0.00 0.00 67 1016.1
20260508031542 9 0 0.0 1.6 0.00 0.00 0.00 66 1016.0
20260508031042 9 0 0.0 1.6 0.00 0.00 0.00 66 1016.0
20260508030538 10 0 0.0 1.6 0.00 0.00 0.00 66 1016.0
20260508030101 10 0 0.0 1.6 0.00 0.00 0.00 66 1015.9
20260508025538 10 0 0.0 0.0 0.00 0.00 0.00 66 1015.9
20260508025037 10 0 0.0 0.0 0.00 0.00 0.00 66 1015.9
20260508024616 10 0 0.0 0.0 0.00 0.00 0.00 65 1015.9